TimeEST,TemperatureF,Dew PointF,Humidity,Sea Level PressureIn,VisibilityMPH,Wind Direction,Wind SpeedMPH,Gust SpeedMPH,PrecipitationIn,Events,Conditions,WindDirDegrees,DateUTC
12:15 AM,33.8,33.8,100,30.23,5.0,SSE,3.5,-,N/A,,Clear,160,2012-11-10 05:15:00
12:35 AM,33.8,32.0,93,30.23,7.0,Calm,Calm,-,N/A,,Clear,0,2012-11-10 05:35:00
12:55 AM,33.8,33.8,100,30.23,9.0,Calm,Calm,-,N/A,,Clear,0,2012-11-10 05:55:00
1:15 AM,33.8,33.8,100,30.23,6.0,Calm,Calm,-,N/A,,Clear,0,2012-11-10 06:15:00
1:35 AM,33.8,33.8,100,30.24,8.0,Calm,Calm,-,N/A,,Clear,0,2012-11-10 06:35:00
1:55 AM,33.8,32.0,93,30.24,10.0,Calm,Calm,-,N/A,,Clear,0,2012-11-10 06:55:00
2:15 AM,33.8,33.8,100,30.25,8.0,Calm,Calm,-,N/A,,Clear,0,2012-11-10 07:15:00
2:35 AM,32.0,32.0,100,30.25,10.0,Calm,Calm,-,N/A,,Clear,0,2012-11-10 07:35:00
2:55 AM,32.0,32.0,100,30.25,7.0,Calm,Calm,-,N/A,,Clear,0,2012-11-10 07:55:00
3:15 AM,32.0,30.2,93,30.25,8.0,Calm,Calm,-,N/A,,Clear,0,2012-11-10 08:15:00
3:55 AM,30.2,30.2,100,30.26,6.0,Calm,Calm,-,N/A,,Clear,0,2012-11-10 08:55:00
4:15 AM,30.2,30.2,100,30.26,5.0,Calm,Calm,-,N/A,,Clear,0,2012-11-10 09:15:00
4:35 AM,30.2,30.2,100,30.27,5.0,Calm,Calm,-,N/A,,Clear,0,2012-11-10 09:35:00
4:55 AM,30.2,30.2,100,30.27,5.0,Calm,Calm,-,N/A,,Clear,0,2012-11-10 09:55:00
5:15 AM,30.2,30.2,100,30.28,7.0,Calm,Calm,-,N/A,,Clear,0,2012-11-10 10:15:00
5:35 AM,30.2,30.2,100,30.29,5.0,Calm,Calm,-,N/A,,Clear,0,2012-11-10 10:35:00
5:55 AM,30.2,30.2,100,30.30,8.0,Calm,Calm,-,N/A,,Clear,0,2012-11-10 10:55:00
6:15 AM,30.2,30.2,100,30.30,6.0,Calm,Calm,-,N/A,,Clear,0,2012-11-10 11:15:00
8:45 AM,44.6,39.2,81,30.34,9.0,Calm,Calm,-,N/A,,Clear,0,2012-11-10 13:45:00
9:50 AM,50.0,41.0,71,30.34,10.0,Calm,Calm,-,N/A,,Clear,0,2012-11-10 14:50:00
10:45 AM,55.4,41.0,58,30.34,10.0,Calm,Calm,-,N/A,,Clear,0,2012-11-10 15:45:00
2:45 PM,64.4,37.4,37,30.27,10.0,Calm,Calm,-,N/A,,Clear,0,2012-11-10 19:45:00
4:45 PM,59.0,42.8,55,30.30,10.0,Calm,Calm,-,N/A,,Clear,0,2012-11-10 21:45:00
5:45 PM,51.8,42.8,71,30.31,10.0,Calm,Calm,-,N/A,,Clear,0,2012-11-10 22:45:00
6:45 PM,46.4,42.8,87,30.33,10.0,Calm,Calm,-,N/A,,Clear,0,2012-11-10 23:45:00
7:45 PM,44.6,41.0,87,30.33,10.0,Calm,Calm,-,N/A,,Clear,0,2012-11-11 00:45:00
8:50 PM,42.8,41.0,93,30.35,10.0,Calm,Calm,-,N/A,,Clear,0,2012-11-11 01:50:00
9:45 PM,42.8,39.2,87,30.36,10.0,Calm,Calm,-,N/A,,Clear,0,2012-11-11 02:45:00
10:35 PM,39.2,39.2,100,30.36,10.0,Calm,Calm,-,N/A,,Clear,0,2012-11-11 03:35:00
11:15 PM,39.2,39.2,100,30.37,10.0,Calm,Calm,-,N/A,,Clear,0,2012-11-11 04:15:00
11:35 PM,37.4,37.4,100,30.37,10.0,Calm,Calm,-,N/A,,Clear,0,2012-11-11 04:35:00
11:55 PM,37.4,37.4,100,30.37,9.0,Calm,Calm,-,N/A,,Clear,0,2012-11-11 04:55:00